Precipitable_Water
0.18 0.18 0.19 0.28 0.48 0.59 0.76 0.74 0.75 0.88 0.94 1.03 0.95 0.86 1.04 1.10 1.19 1.26 1.35 1.19 1.27 1.22 1.31 1.42 1.57 1.53 1.56 1.57 1.59 1.61 1.64 1.72 1.70 1.63 1.62 1.58 1.47 1.55 1.58 1.64 1.71 1.67 1.69 1.70
0.18 0.15 0.24 0.39 0.46 0.52 0.69 0.71 0.81 1.00 1.08 1.12 0.96 0.85 0.92 1.03 1.03 1.11 1.31 1.38 1.23 1.30 1.52 1.35 1.47 1.50 1.45 1.55 1.57 1.66 1.67 1.71 1.68 1.59 1.62 1.58 1.53 1.60 1.57 1.65 1.75 1.63 1.62 1.66
0.16 0.20 0.26 0.33 0.39 0.46 0.57 0.66 0.68 0.70 0.85 0.96 0.90 0.75 0.87 1.07 1.14 1.14 1.20 1.40 1.47 1.42 1.43 1.32 1.40 1.53 1.51 1.54 1.55 1.62 1.63 1.64 1.65 1.60 1.60 1.56 1.60 1.63 1.59 1.62 1.68 1.65 1.67 1.73
0.20 0.24 0.24 0.26 0.34 0.42 0.54 0.74 0.72 0.69 0.67 0.54 0.77 0.47 0.75 0.98 1.06 1.08 1.09 1.22 1.40 1.45 1.41 1.51 1.50 1.38 1.40 1.51 1.64 1.62 1.62 1.58 1.59 1.59 1.57 1.50 1.46 1.38 1.46 1.50 1.62 1.50 1.55 1.66
0.22 0.24 0.25 0.28 0.29 0.43 0.47 0.59 0.56 0.57 0.54 0.54 0.56 0.57 0.63 1.02 1.01 1.04 1.08 1.18 1.28 1.40 1.40 1.50 1.44 1.49 1.48 1.58 1.60 1.67 1.65 1.54 1.58 1.53 1.55 1.48 1.45 1.49 1.50 1.54 1.58 1.54 1.62 1.51
0.28 0.37 0.31 0.31 0.39 0.45 0.49 0.50 0.50 0.51 0.49 0.39 0.54 0.63 0.71 0.84 0.99 1.04 1.19 1.24 1.32 1.38 1.39 1.43 1.50 1.39 1.63 1.58 1.56 1.61 1.52 1.48 1.53 1.54 1.55 1.45 1.40 1.56 1.53 1.48 1.47 1.54 1.48 1.45
0.31 0.32 0.34 0.35 0.32 0.39 0.42 0.40 0.34 0.36 0.38 0.38 0.59 0.54 0.69 0.89 0.99 1.06 1.13 1.23 1.31 1.25 1.24 1.44 1.41 1.33 1.53 1.56 1.60 1.58 1.43 1.39 1.59 1.61 1.57 1.54 1.55 1.53 1.55 1.41 1.44 1.44 1.38 1.47
0.31 0.29 0.32 0.36 0.33 0.35 0.38 0.36 0.29 0.28 0.31 0.43 0.58 0.50 0.77 1.04 1.13 1.19 1.24 1.33 1.33 1.21 1.21 1.42 1.53 1.53 1.59 1.53 1.57 1.59 1.39 1.32 1.52 1.51 1.52 1.65 1.59 1.57 1.56 1.51 1.55 1.49 1.46 1.54
0.36 0.32 0.35 0.32 0.31 0.35 0.35 0.34 0.41 0.34 0.42 0.39 0.54 0.64 0.81 1.02 1.08 1.15 1.22 1.35 1.27 1.20 1.20 1.26 1.37 1.55 1.40 1.47 1.54 1.50 1.44 1.33 1.36 1.43 1.37 1.57 1.63 1.54 1.77 1.64 1.66 1.60 1.60 1.68
0.43 0.37 0.45 0.38 0.34 0.30 0.31 0.37 0.34 0.46 0.37 0.32 0.49 0.59 0.59 0.78 0.96 1.11 1.12 1.29 1.35 1.20 1.24 1.38 1.53 1.51 1.61 1.63 1.65 1.63 1.53 1.40 1.30 1.37 1.43 1.48 1.55 1.48 1.65 1.62 1.54 1.54 1.72 1.87
0.41 0.41 0.47 0.45 0.47 0.44 0.42 0.37 0.44 0.53 0.56 0.43 0.44 0.60 0.88 0.91 1.00 1.13 1.28 1.40 1.38 1.28 1.31 1.48 1.49 1.52 1.52 1.62 1.66 1.61 1.63 1.49 1.33 1.38 1.39 1.44 1.50 1.54 1.50 1.56 1.52 1.59 1.72 1.73
0.48 0.44 0.41 0.53 0.64 0.65 0.57 0.52 0.48 0.42 0.43 0.52 0.56 0.60 0.92 0.96 1.04 1.21 1.40 1.51 1.59 1.59 1.48 1.55 1.55 1.57 1.57 1.61 1.68 1.80 1.78 1.58 1.43 1.36 1.36 1.42 1.50 1.56 1.56 1.60 1.64 1.74 1.64 1.73
0.47 0.41 0.39 0.48 0.57 0.62 0.56 0.59 0.56 0.48 0.52 0.45 0.41 0.49 0.88 0.90 0.99 1.11 1.33 1.45 1.28 1.65 1.67 1.64 1.72 1.73 1.73 1.73 1.71 1.87 1.85 1.67 1.57 1.43 1.33 1.36 1.41 1.51 1.62 1.60 1.67 1.68 1.65 1.65
0.43 0.38 0.41 0.34 0.46 0.57 0.47 0.54 0.56 0.55 0.42 0.44 0.51 0.59 0.73 0.82 0.90 1.02 1.13 1.33 1.50 1.49 1.40 1.64 1.77 1.70 1.79 1.84 1.83 2.00 2.25 1.93 1.88 1.68 1.50 1.34 1.40 1.47 1.51 1.62 1.73 1.71 1.71 1.70
0.45 0.28 0.39 0.43 0.50 0.53 0.53 0.52 0.52 0.53 0.56 0.46 0.52 0.55 0.69 0.78 0.82 0.96 1.09 1.21 1.33 1.26 1.29 1.32 1.40 1.54 1.69 1.91 1.86 1.91 2.16 1.99 1.97 1.78 1.75 1.51 1.54 1.47 1.54 1.61 1.64 1.84 1.85 1.93
0.54 0.32 0.39 0.38 0.46 0.54 0.55 0.62 0.59 0.64 0.60 0.60 0.63 0.63 0.75 0.77 0.97 1.00 1.01 1.14 1.20 1.28 1.36 1.36 1.40 1.51 1.55 1.79 1.77 1.77 1.86 1.90 1.96 1.88 1.88 1.82 1.67 1.65 1.57 1.59 1.69 1.76 1.79 1.88
0.54 0.51 0.44 0.36 0.49 0.53 0.50 0.60 0.59 0.64 0.74 0.68 0.59 0.71 0.89 0.86 0.98 1.01 1.06 1.11 1.03 1.20 1.32 1.34 1.31 1.39 1.41 1.39 1.45 1.61 1.80 1.96 1.85 1.78 1.99 1.86 1.87 1.69 1.77 1.74 1.74 1.68 1.73 1.81
0.47 0.45 0.44 0.36 0.42 0.32 0.50 0.65 0.60 0.64 0.71 0.77 0.85 0.91 0.89 0.83 0.97 1.06 1.16 1.14 1.12 1.18 1.26 1.31 1.31 1.34 1.37 1.41 1.45 1.57 1.84 1.95 1.89 1.78 1.83 1.89 1.97 1.95 1.73 1.71 1.63 1.66 1.69 1.70
0.46 0.45 0.39 0.32 0.33 0.40 0.50 0.53 0.53 0.56 0.64 0.83 0.90 0.96 0.95 0.99 1.01 0.95 1.05 1.09 1.08 1.18 1.25 1.30 1.38 1.41 1.45 1.48 1.48 1.52 1.61 1.73 1.90 1.94 1.94 1.90 1.87 1.83 1.97 1.91 1.75 1.82 1.79 1.85
0.54 0.50 0.40 0.34 0.29 0.32 0.56 0.66 0.74 0.72 0.57 0.94 0.97 0.90 0.90 0.87 0.65 0.83 1.09 1.18 1.19 1.16 1.20 1.22 1.33 1.39 1.43 1.52 1.52 1.47 1.54 1.64 1.59 1.69 1.74 1.99 2.10 2.11 2.07 2.11 2.03 1.96 1.96 1.99
0.49 0.48 0.41 0.39 0.34 0.45 0.64 0.68 0.71 0.45 0.56 0.97 0.96 0.91 0.85 0.81 0.84 0.98 1.09 1.10 1.12 1.09 1.12 1.17 1.15 1.15 1.28 1.46 1.53 1.42 1.47 1.54 1.74 1.77 1.70 1.78 1.90 1.99 2.03 1.98 1.94 1.86 1.83 1.80
0.41 0.45 0.42 0.38 0.32 0.38 0.73 0.66 0.58 0.78 0.93 1.00 1.12 0.92 0.78 0.75 0.92 1.00 0.95 0.90 0.89 0.86 0.89 0.97 1.00 1.08 1.18 1.27 1.31 1.34 1.32 1.54 1.68 1.77 1.71 1.74 1.80 1.95 2.04 1.96 1.91 1.89 1.82 1.75
0.44 0.51 0.52 0.50 0.49 0.65 0.70 0.71 0.81 0.87 0.98 0.96 1.01 0.97 0.90 0.88 0.92 0.90 0.92 0.93 0.87 0.88 0.87 0.90 0.93 0.93 1.05 1.19 1.26 1.27 1.39 1.53 1.58 1.66 1.68 1.67 1.68 1.73 1.82 1.89 1.87 1.84 1.82 1.77
0.66 0.67 0.58 0.58 0.64 0.67 0.74 0.83 0.79 0.79 0.88 0.95 0.98 0.91 0.80 0.84 0.85 0.83 0.89 0.91 0.88 0.85 0.77 0.84 0.90 0.91 0.94 1.08 1.19 1.31 1.47 1.54 1.52 1.53 1.60 1.54 1.53 1.55 1.61 1.69 1.80 1.74 1.72 1.70
0.71 0.70 0.63 0.60 0.62 0.69 0.73 0.77 0.71 0.71 0.81 0.79 0.74 0.70 0.66 0.69 0.74 0.80 0.87 0.93 0.94 0.85 0.79 0.82 0.82 0.88 0.94 1.07 1.15 1.28 1.41 1.49 1.47 1.53 1.55 1.48 1.54 1.60 1.60 1.61 1.59 1.59 1.60 1.62
0.78 0.72 0.60 0.53 0.64 0.68 0.66 0.75 0.75 0.72 0.73 0.76 0.71 0.66 0.64 0.65 0.70 0.79 0.80 0.82 0.83 0.74 0.75 0.78 0.82 0.86 0.95 1.04 1.16 1.28 1.38 1.41 1.43 1.43 1.45 1.45 1.40 1.47 1.52 1.52 1.52 1.58 1.57 1.57
Wind_Speed
10 9 12 14 13 10 8 8 8 7 6 8 7 5 6 7 10 11 10 13 12 11 8 10 12 13 11 11 11 12 13 15 15 16 15 14 15 13 12 14 13 11 11 11
8 10 13 14 14 13 11 9 5 3 8 13 8 8 6 8 10 12 12 12 14 12 10 13 12 13 13 11 10 12 13 14 16 15 14 14 15 13 13 13 12 11 12 12
10 11 10 14 13 11 7 12 9 8 11 10 7 8 7 9 7 10 14 14 13 15 14 13 14 15 14 13 11 13 13 14 16 17 15 14 14 13 13 12 11 10 12 13
10 11 12 12 12 10 9 9 6 8 9 10 11 11 10 10 11 12 15 17 17 17 17 17 14 14 15 14 12 12 14 15 16 18 16 15 14 13 13 12 10 10 12 12
8 8 10 8 12 9 9 7 10 10 12 11 12 12 12 10 12 12 16 18 20 20 21 20 18 15 17 16 14 13 14 15 17 18 16 15 14 13 12 12 11 11 10 11
7 6 5 7 11 11 13 9 10 9 9 8 8 7 9 11 15 14 13 17 20 22 24 21 22 17 18 17 16 14 15 17 18 17 16 16 15 13 12 12 12 12 10 11
7 8 5 6 8 11 13 8 7 6 7 11 9 9 11 14 13 13 13 14 18 23 24 22 23 19 18 20 17 15 16 18 18 18 17 16 15 13 11 13 13 12 12 11
10 9 7 7 9 7 10 11 9 7 7 11 10 9 9 6 6 13 13 14 17 23 24 24 22 21 20 21 20 17 17 18 19 19 18 16 16 14 12 14 12 11 12 11
5 2 5 4 4 8 9 9 10 11 12 8 8 10 13 8 8 8 8 14 18 23 27 24 24 22 22 22 21 19 19 18 19 20 19 18 17 16 15 14 12 12 11 11
4 4 3 4 4 6 10 9 7 8 6 9 9 8 12 10 13 11 10 13 16 24 26 25 24 23 24 25 22 21 20 18 19 20 20 20 18 17 17 15 14 13 12 11
5 2 4 3 3 4 4 8 7 6 7 8 7 8 9 8 10 13 15 17 19 24 27 26 26 24 25 24 23 23 21 20 20 20 21 21 20 19 19 17 16 15 14 13
4 5 4 4 4 5 8 5 6 7 10 9 10 11 8 10 8 5 12 14 13 14 22 24 25 24 26 25 23 24 24 21 21 21 21 23 22 21 21 19 18 16 17 15
8 7 5 7 9 10 7 10 6 9 10 13 11 13 10 9 8 10 12 13 14 11 15 18 18 20 20 25 27 19 26 25 22 20 21 23 23 23 21 21 20 19 17 17
7 11 10 7 6 7 8 9 8 6 8 11 12 13 12 10 12 11 12 7 5 7 8 10 15 16 19 21 27 26 25 23 21 21 21 22 24 24 23 22 21 20 19 18
6 9 11 11 9 7 7 10 11 10 9 8 13 13 13 11 10 10 8 8 3 4 6 6 10 13 19 23 25 27 17 19 20 20 20 23 24 24 23 23 22 22 21 19
8 8 11 12 11 10 9 5 5 6 8 8 10 10 12 11 9 8 7 7 7 6 6 6 7 10 11 14 21 31 25 23 23 20 21 25 26 25 25 23 23 22 21 20
7 7 7 10 8 8 10 8 8 9 13 12 10 11 9 11 9 7 7 8 5 6 6 6 5 5 5 6 10 17 35 30 26 24 18 25 30 28 26 24 23 22 22 21
9 10 10 11 12 11 9 9 10 11 9 7 7 9 11 10 9 7 6 7 9 8 7 7 7 6 6 6 7 7 12 22 32 27 31 23 26 28 27 26 25 24 23 23
13 10 9 8 10 9 8 7 8 9 10 9 7 10 10 8 7 8 6 6 7 8 9 10 11 11 11 9 8 8 7 7 14 23 22 22 21 26 28 27 25 24 23 23
12 11 10 9 11 10 11 10 8 8 7 11 11 11 7 8 6 9 9 7 7 8 10 11 12 13 14 14 14 13 11 10 11 14 16 23 27 27 24 25 25 24 23 21
8 9 10 11 10 8 9 10 10 9 11 13 11 10 6 7 12 12 9 8 9 9 10 12 13 14 14 16 17 16 15 14 14 14 13 14 19 26 26 27 26 26 26 25
12 10 11 11 11 9 8 6 6 8 7 10 11 11 11 13 11 9 10 11 12 12 13 14 14 15 15 15 15 14 13 13 14 13 12 11 13 17 23 26 27 28 27 27
11 10 10 8 10 10 10 10 10 9 10 12 11 11 10 10 11 11 10 10 10 12 13 14 14 15 16 16 16 15 15 14 12 11 11 9 8 10 14 16 24 26 27 30
9 7 8 7 7 9 10 8 7 8 8 9 8 8 10 10 9 11 11 10 9 10 12 13 14 14 15 16 16 16 15 14 12 12 11 10 9 8 8 11 17 17 20 20
12 9 9 9 9 8 7 8 9 9 9 10 9 10 10 11 10 10 10 11 11 12 11 12 12 13 13 13 14 16 15 14 12 11 12 12 11 10 9 8 10 11 13 15
11 11 10 10 12 11 12 12 8 8 10 11 10 10 10 11 11 10 10 10 11 12 11 10 10 10 11 11 11 13 15 15 15 13 13 13 12 12 11 9 10 9 9 10
Wind_Direction
223 218 223 227 234 232 246 249 231 248 250 228 223 238 219 219 213 206 206 199 195 207 192 186 183 172 164 161 163 164 165 170 166 167 166 167 168 170 174 176 175 172 174 174
230 227 231 231 243 243 239 236 201 251 294 220 228 246 227 218 221 213 210 206 208 201 195 195 182 177 172 169 168 168 171 171 173 173 171 170 174 175 176 176 180 183 179 178
218 231 229 239 250 253 251 251 233 237 235 252 237 257 229 234 228 224 219 216 212 197 195 186 183 178 180 178 175 173 173 175 176 174 173 169 171 174 176 178 182 187 185 183
233 247 242 237 246 242 235 203 223 236 245 256 241 266 241 227 230 230 226 215 211 210 209 198 194 196 189 185 183 181 181 181 179 179 178 177 178 175 179 182 186 180 181 188
238 240 260 231 236 250 230 242 255 254 259 268 262 260 259 216 230 233 233 221 219 220 204 200 204 198 193 189 186 187 185 184 182 181 182 182 179 180 184 188 185 186 189 191
252 272 259 253 251 253 242 259 263 251 257 263 267 269 242 232 236 244 240 225 220 211 204 212 205 201 198 194 190 189 188 183 182 183 183 184 182 182 186 189 190 186 187 185
246 253 266 253 236 240 243 264 269 262 264 247 278 280 253 234 246 242 229 225 210 203 200 204 198 197 200 195 194 191 191 190 191 191 191 190 189 187 186 184 182 188 189 185
262 261 226 246 239 231 236 234 230 248 253 265 279 267 250 256 300 254 238 218 206 203 201 204 203 203 200 198 198 199 194 195 197 197 196 195 194 192 189 187 192 189 193 194
336 50 207 234 235 234 250 245 241 255 248 255 251 271 251 273 295 284 255 219 213 209 205 205 207 211 205 203 202 201 201 199 200 201 201 200 199 201 198 195 196 195 199 205
256 289 241 235 230 245 234 252 279 267 269 263 259 249 268 269 279 274 259 255 237 211 206 210 211 213 213 209 205 203 204 206 205 204 205 205 205 206 205 205 204 203 202 204
253 270 308 223 299 278 274 272 267 242 261 247 258 271 259 252 287 279 258 258 237 218 213 211 211 213 208 206 209 208 209 207 209 210 210 209 210 210 209 211 209 208 209 207
286 271 287 232 279 294 261 272 253 246 248 245 237 257 265 253 283 252 292 246 199 209 212 211 212 212 211 212 210 214 212 214 215 214 214 212 212 213 214 216 216 217 219 219
276 252 277 298 291 289 244 270 266 266 243 238 240 250 267 268 261 254 331 203 177 183 189 194 202 208 215 218 214 227 223 218 216 216 215 215 215 215 217 218 219 221 221 222
270 243 241 260 252 271 270 245 249 259 251 240 256 248 253 257 258 249 289 12 147 166 162 187 201 217 223 223 224 221 215 217 221 221 219 219 218 219 219 220 221 222 224 225
271 251 246 261 267 262 257 256 247 240 246 247 239 240 249 250 263 264 273 276 259 224 221 222 226 239 232 230 229 221 223 214 222 226 230 225 224 223 222 222 223 224 226 231
260 250 255 264 291 244 251 269 283 241 262 260 259 252 245 251 268 263 269 261 257 259 223 218 228 232 235 231 240 229 237 234 229 229 237 241 227 224 223 224 224 225 228 231
255 255 265 259 273 274 271 248 249 257 238 252 255 242 243 248 249 269 245 235 255 265 240 234 231 225 228 244 267 248 240 238 232 234 239 246 226 222 222 224 224 226 229 232
262 258 253 260 269 268 271 264 266 247 240 248 257 242 232 241 246 248 251 259 248 247 236 232 230 229 249 272 278 276 263 239 237 243 235 246 226 218 224 227 229 231 233 236
255 250 250 246 256 257 258 275 278 264 242 232 220 233 248 245 253 244 244 251 243 244 247 241 239 244 254 264 269 281 290 267 237 236 232 231 222 230 229 228 229 232 235 239
253 246 237 253 255 265 253 256 243 232 238 213 213 222 249 247 233 258 251 243 247 258 256 251 251 255 259 261 264 269 271 273 260 246 251 239 236 240 233 226 230 232 235 238
240 247 244 253 247 246 258 252 258 262 252 212 224 231 228 260 264 244 236 252 258 260 264 262 262 262 267 265 261 265 268 268 267 257 260 257 250 244 237 234 236 236 239 242
245 237 247 249 244 242 252 261 247 237 210 206 211 233 248 256 257 246 248 255 259 265 268 266 266 265 268 268 265 263 269 274 269 265 260 263 267 240 236 234 237 239 241 246
241 234 236 242 237 246 256 247 238 246 236 236 232 241 252 245 255 252 250 255 260 264 264 265 266 267 266 267 263 262 265 265 263 255 255 254 266 258 245 242 240 240 245 248
244 240 230 235 252 252 251 237 249 250 232 242 242 256 269 249 249 254 253 252 258 262 264 265 265 269 268 264 261 260 258 259 263 249 245 246 256 261 260 266 235 239 242 243
239 252 239 247 252 251 241 249 244 247 245 242 255 263 268 260 259 252 250 253 257 261 263 260 261 263 266 267 260 253 252 250 250 250 247 256 254 258 267 251 236 236 241 242
237 239 237 249 251 251 247 249 254 243 247 245 249 257 263 260 259 254 251 253 255 256 250 253 258 260 261 261 259 253 248 247 243 247 251 251 252 255 250 245 238 242 243 243